Regional Weather Roundup
Issued by NWS Green Bay, WI

Home | Current Version | Previous Version | Text Only | Print | Product List | Glossary On
Versions: 1 2 3 4 5 6 7 8 9 10 11 12 13 14 15 16 17 18 19 20 21 22 23 24 25 26 27 28 29 30 31 32 33 34 35 36 37 38 39 40 41 42 43 44 45 46 47 48 49 50
000
ASUS43 KGRB 241310
RWRGRB

NORTH-CENTRAL AND NORTHEAST WISCONSIN REGIONAL WEATHER ROUNDUP
NATIONAL WEATHER SERVICE GREEN BAY WI
800 AM CDT THU APR 24 2014

WIZ005-009-010>012-018-019-241400-
NORTH CENTRAL WISCONSIN

CITY           SKY/WX    TMP DP  RH WIND       PRES   REMARKS
IRONWOOD       CLOUDY    37  30  75 E8G17     29.95S
MANITOWISH WTR CLOUDY    34  32  92 SE7       29.98F
ARBOR VITAE    CLOUDY    37  34  91 SE13      29.99F
EAGLE RIVER    CLOUDY    35  29  78 SE8       30.00F
LAND O LAKES   CLOUDY    38  32  78 E8        30.01F
RHINELANDER    CLOUDY    34  28  79 E12       30.00F
PHILLIPS       FLURRIES  34  30  84 SE9       29.96S
ANTIGO         CLOUDY    37  20  51 SE10      30.00F
TOMAHAWK       LGT SNOW  33  29  84 CALM      29.98F
MERRILL        CLOUDY    38  24  57 SE6       29.99S
$$

WIZ013-073-241400-
NORTHEAST WISCONSIN

CITY           SKY/WX    TMP DP  RH WIND       PRES   REMARKS
IRON MOUNTAIN  CLOUDY    38  16  40 SE6       30.05S
MARINETTE      CLOUDY    36  25  64 E9        30.07S
OCONTO         CLOUDY    37  26  63 E6        30.06F
$$

WIZ017-030-035>037-045-241400-
CENTRAL WISCONSIN

CITY           SKY/WX    TMP DP  RH WIND       PRES   REMARKS
MEDFORD        LGT RAIN  34  31  88 E9        29.95F
WAUSAU         CLOUDY    39  21  48 SE9       29.98S
MOSINEE        CLOUDY    36  28  75 E8        30.00S
MARSHFIELD     RAIN      36  33  89 E15G21    29.95F FOG
WISC RAPIDS    RAIN      37  36  96 E8        29.99R FOG
STEVENS POINT  LGT RAIN  35  31  85 E7        30.00S
WAUPACA        LGT RAIN  39  32  75 E5        30.02S
SHAWANO        CLOUDY    41  27  58 E7        30.04F
CLINTONVILLE   FLURRIES  39  28  65 E5        30.03S
$$

WIZ038-039-048-051-241400-
FOX VALLEY

CITY           SKY/WX    TMP DP  RH WIND       PRES   REMARKS
NWS GREEN BAY  CLOUDY    41  28  60 E6        30.04F
APPLETON       LGT RAIN  39  30  70 SE6       30.02F
OSHKOSH        LGT RAIN  41  35  79 SE9       30.01F
FOND DU LAC    LGT RAIN  40  34  79 SE13      30.01F
$$

WIZ022-050-052-241400-
EAST CENTRAL WISCONSIN

CITY           SKY/WX    TMP DP  RH WIND       PRES   REMARKS
STURGEON BAY   CLOUDY    39  23  52 E8        30.08S
MANITOWOC      LGT RAIN  39  30  70 E6        30.05F
SHEBOYGAN      LGT RAIN  41  31  67 SE8       30.05S
$$

LMZ563-521-522-541>543-241400-
LAKESHORE

STATION/POSITION TIME  TEMP    WIND        PRES    VSBY  WAVE
                       AIR SEA DIR/SP/G                  HT/PER
                 (UTC) (F)     (DEG/KT/KT) (MB)    (MI)  (FT/S)
SHEBOYGAN LKSHOR 1300   40     130/ 12/ 13 1018.3S
KEWAUNEE LKSHORE 1300   37     100/  5/  8 1018.6F
TWO RIVERS CG    1200   38                   N/A       6   0
NORTHPORT PIER   1300   36     110/ 12/ 14 1019.0F
SISTER BAY LKSHO 1300   40     140/ 13/ 17   N/A
STURGEON BAY CG  1200   37      50/  9     1019.2   3 1/2  1
MENOMINEE LKSHOR 1300   33      10/  7/  7 1018.9F
$$



USA.gov is the U.S. government's official web portal to all federal, state and local government web resources and services.